Wetbulb
70.91 71.70 69.94 69.76 72.37 72.11 71.41 69.77 73.10 72.66 74.74 75.08 74.67 74.42 74.44 74.34 74.73 74.09 72.86 73.36 73.84 73.36 73.12 73.27 73.50 72.79 72.33 71.54 72.58 72.56 71.97 69.23 66.13 67.75 70.12 72.49 71.75 70.96 71.99 72.65 73.36 72.73 72.45
71.55 71.64 71.49 69.89 70.94 72.14 70.87 70.72 73.32 72.20 73.07 74.64 74.94 74.96 74.28 73.42 73.64 74.00 73.55 73.38 72.77 73.33 73.69 72.96 72.94 75.20 73.33 72.14 72.26 71.62 72.12 71.64 70.52 67.31 69.42 70.82 71.69 73.07 73.26 73.22 75.11 76.97 73.55
72.47 71.43 71.69 71.03 69.67 70.77 70.93 70.11 72.17 74.53 74.49 75.49 74.36 74.14 73.37 73.30 73.07 73.70 74.10 73.43 72.74 73.55 74.26 74.07 74.07 73.45 73.49 74.39 73.89 73.34 73.41 74.15 73.26 71.76 71.32 72.52 72.65 71.71 70.92 71.75 72.96 73.91 75.48
72.87 72.25 71.41 71.18 71.44 70.25 70.60 69.97 71.66 73.52 73.33 74.34 74.95 74.02 74.68 73.67 73.42 73.35 74.52 74.13 73.30 73.47 74.22 73.52 73.82 74.26 73.82 73.77 74.71 74.22 74.18 73.64 73.04 72.09 71.67 71.37 71.29 72.28 72.60 70.40 70.08 70.97 71.32
73.16 72.74 72.29 72.07 71.88 72.13 71.21 70.85 69.47 73.45 73.52 73.57 73.93 74.51 74.88 75.04 75.14 73.29 73.12 74.01 73.84 73.61 73.91 74.27 74.12 74.50 73.79 73.77 75.20 74.64 74.94 73.89 73.40 72.53 71.60 70.87 70.19 69.25 69.63 70.94 69.27 69.73 71.19
73.30 73.11 73.20 73.09 72.67 72.41 72.36 72.29 70.87 70.32 73.09 73.96 74.14 74.25 74.34 76.10 71.05 69.42 72.53 72.97 74.06 74.02 73.52 73.64 74.56 73.07 72.23 69.93 68.91 69.53 73.82 73.64 71.71 70.99 70.13 69.54 69.19 69.36 71.02 69.86 70.27 69.84 69.03
73.18 73.55 73.61 73.20 72.81 72.71 73.27 73.01 73.15 71.82 71.53 72.81 74.02 74.70 74.61 75.23 68.43 67.71 69.39 73.71 72.53 73.49 73.60 73.31 73.33 74.95 71.98 73.84 70.61 67.81 67.57 66.83 68.66 72.06 69.43 69.59 69.04 70.16 70.49 70.46 70.99 71.06 71.40
72.21 72.85 73.50 73.82 73.14 73.27 73.14 73.30 73.54 74.07 73.06 73.05 73.79 74.64 74.76 75.47 68.26 66.06 67.39 71.75 72.69 72.54 72.89 73.71 73.84 73.64 72.31 71.71 72.16 72.22 72.35 71.86 70.14 69.38 69.72 71.59 72.03 72.43 72.86 73.35 72.49 72.49 73.12
72.65 72.64 73.42 73.53 73.62 73.69 72.81 73.13 73.85 73.83 74.18 73.57 74.16 74.84 74.89 75.03 65.96 65.34 65.05 67.60 70.87 72.04 72.92 72.92 72.84 72.81 69.71 66.89 70.51 70.20 69.71 70.37 71.03 66.62 66.93 66.57 67.31 67.60 70.28 72.82 71.23 68.54 69.55
69.85 74.26 74.12 73.97 73.80 73.82 74.34 73.73 74.47 74.42 73.91 74.66 74.58 74.74 72.31 74.97 66.71 63.30 65.01 73.05 69.68 70.28 71.71 72.35 66.98 71.30 66.16 64.46 71.14 71.20 71.12 72.43 72.17 72.92 72.53 67.95 65.59 67.75 66.32 70.16 73.01 68.89 70.76
65.38 67.00 75.48 74.63 74.02 74.60 74.70 74.97 74.64 74.47 74.46 73.89 74.14 74.76 75.07 74.31 74.77 62.88 60.31 73.69 73.64 71.73 71.21 71.30 72.64 63.99 60.62 59.30 61.20 71.74 71.22 71.76 70.83 72.01 72.88 73.61 74.09 74.16 74.71 69.03 69.64 71.51 71.16
63.04 64.66 73.72 75.27 74.61 75.07 74.75 75.16 74.90 74.62 74.08 73.83 73.97 74.20 75.13 75.88 67.50 64.03 59.42 61.09 69.66 73.15 72.14 72.95 72.37 62.61 59.61 59.34 60.77 63.35 63.01 63.61 71.15 72.06 71.74 71.15 71.22 72.14 73.48 75.90 75.42 74.65 75.41
61.83 64.30 72.20 75.32 75.05 74.90 74.73 74.79 74.71 74.75 74.46 73.87 73.92 73.94 74.54 75.89 76.63 63.13 59.70 58.22 60.17 71.27 74.25 71.02 65.42 60.80 57.79 56.44 56.35 59.68 59.49 64.77 68.70 69.83 70.28 70.87 72.00 73.44 74.02 73.92 72.88 71.65 70.83
60.86 62.89 73.58 74.83 75.01 74.99 75.73 75.57 75.45 74.97 74.61 74.43 74.15 73.94 74.56 74.79 75.56 76.83 70.50 65.29 60.52 63.67 66.95 69.53 64.55 64.39 64.28 67.59 65.10 61.05 61.81 66.36 68.00 68.95 70.09 71.71 72.91 73.55 74.01 73.60 70.87 70.12 68.42
60.43 62.47 68.24 74.22 73.52 75.22 75.48 75.52 75.45 76.17 74.62 74.97 74.98 74.94 74.10 74.28 74.71 70.38 72.26 73.59 72.08 68.27 68.52 71.27 71.48 71.11 71.33 71.77 71.24 71.82 67.66 68.09 70.11 71.45 72.08 72.75 74.09 74.37 73.56 73.42 72.67 69.01 68.27
58.91 61.31 60.41 65.13 69.40 74.33 74.09 72.65 56.98 61.14 58.85 58.79 60.95 70.56 74.96 63.68 62.05 59.22 57.04 60.29 60.75 57.20 67.50 71.04 70.82 71.42 71.31 71.45 70.91 70.16 73.16 70.63 71.74 72.35 73.28 73.65 73.45 73.09 72.71 71.39 69.24 69.67 68.42
58.14 59.22 60.65 60.92 65.43 67.12 72.93 73.61 73.03 65.40 54.83 51.38 52.11 58.46 57.46 60.36 49.57 49.93 49.39 51.33 52.11 59.03 69.94 70.58 71.52 72.11 72.26 72.24 72.17 71.86 71.57 73.29 74.47 74.47 73.80 73.23 73.26 73.53 72.22 70.87 70.26 69.67 69.33
58.41 56.36 59.46 60.51 61.74 64.10 65.56 70.45 73.63 72.52 70.04 69.05 53.74 53.56 49.21 50.11 49.03 47.76 49.21 54.99 61.48 63.86 71.78 71.65 72.01 72.87 73.14 73.22 73.63 73.35 73.20 73.20 72.93 72.44 72.49 72.78 73.48 72.22 71.02 70.03 69.92 69.96 69.98
56.94 58.51 59.35 60.31 62.21 61.85 65.55 68.67 72.86 73.02 71.16 71.50 65.07 54.26 51.56 51.02 50.84 50.48 49.03 71.46 71.09 71.10 72.68 73.45 73.73 74.35 74.32 73.56 74.01 73.79 73.60 72.88 72.86 73.21 73.80 74.29 74.29 72.47 70.91 70.55 70.75 63.17 65.66
55.23 57.39 58.53 60.79 62.31 62.71 63.95 65.07 66.15 69.26 70.58 71.34 70.75 68.18 62.09 60.59 65.33 65.80 66.07 67.95 70.24 71.93 73.01 73.33 72.95 72.85 72.84 72.76 74.33 74.04 73.04 72.32 72.64 73.25 74.50 74.86 73.98 72.22 71.16 70.98 71.36 70.98 69.26
52.23 55.92 59.06 61.41 60.99 61.91 62.19 62.91 63.39 65.10 67.14 67.48 67.39 68.18 55.73 67.16 67.25 68.67 68.63 68.11 69.30 71.18 71.11 71.49 71.98 71.88 71.87 73.97 74.34 74.58 74.28 74.15 74.79 74.39 73.45 72.92 72.22 71.25 71.52 72.06 71.23 70.62 68.42
50.72 52.32 55.13 57.68 60.71 61.70 61.51 60.11 58.97 61.36 62.90 62.91 64.95 60.54 54.96 65.42 64.64 66.29 64.46 61.95 62.15 60.84 59.85 56.64 55.74 54.38 54.08 53.70 54.70 60.90 70.01 71.69 72.59 73.46 72.66 71.33 70.21 69.51 69.49 70.19 69.92 69.78 69.15
47.73 48.10 49.34 50.49 52.25 53.46 54.76 54.68 52.98 53.25 53.16 53.81 56.54 56.55 54.90 54.47 53.85 53.93 54.29 53.85 51.82 51.69 51.34 50.68 50.01 48.64 49.76 47.18 47.66 48.44 47.73 47.96 49.51 55.68 69.43 70.86 69.67 69.35 69.03 68.47 69.44 69.01 67.79
44.50 44.34 44.16 44.77 46.25 48.04 49.20 48.30 49.02 47.20 48.56 47.77 47.07 48.29 49.03 49.37 49.60 48.52 49.28 48.34 47.74 46.32 46.13 45.54 45.65 46.13 44.25 45.38 43.97 44.04 42.88 40.87 43.58 52.98 55.44 63.72 70.65 67.57 69.91 68.76 68.88 68.49 66.71
41.72 41.70 41.46 41.23 41.81 42.04 42.49 42.17 43.44 43.35 43.70 43.77 43.37 43.42 43.51 44.05 44.20 43.81 44.32 44.33 43.60 43.32 41.66 41.10 40.23 40.80 41.29 41.63 39.46 39.49 36.07 32.88 42.33 39.01 54.20 59.28 63.00 65.24 69.77 70.17 69.52 68.67 66.68
40.34 40.03 39.62 39.58 39.24 39.76 39.50 39.24 39.78 39.80 39.83 40.37 40.39 40.63 41.04 40.79 40.60 41.12 41.24 41.32 41.37 40.63 39.79 39.32 38.22 36.78 37.24 37.02 35.48 34.37 32.57 33.28 39.43 37.94 50.31 59.39 60.64 61.36 60.66 65.07 65.69 64.80 65.27
MSLP
1011.39 1012.13 1012.95 1013.53 1013.90 1014.31 1014.67 1014.91 1015.09 1015.29 1015.82 1016.23 1016.67 1017.23 1017.64 1017.97 1018.25 1018.61 1018.92 1019.19 1019.54 1019.71 1019.79 1019.95 1019.91 1019.79 1019.80 1019.81 1019.88 1019.86 1019.98 1020.18 1020.42 1019.89 1019.31 1018.59 1018.39 1018.05 1017.40 1017.07 1016.91 1016.71 1016.31
1010.52 1011.33 1011.98 1012.80 1013.46 1013.72 1014.19 1014.45 1014.74 1015.01 1015.53 1016.04 1016.41 1016.97 1017.35 1017.61 1017.86 1018.21 1018.59 1018.83 1019.17 1019.45 1019.52 1019.73 1019.74 1019.64 1019.71 1019.61 1019.71 1019.83 1019.87 1019.77 1019.98 1019.94 1019.51 1019.00 1018.54 1017.86 1017.25 1017.17 1016.65 1016.04 1015.93
1009.58 1010.52 1011.29 1011.90 1012.55 1013.18 1013.60 1014.05 1014.32 1014.67 1014.97 1015.52 1015.95 1016.44 1016.81 1017.17 1017.47 1017.77 1018.09 1018.35 1018.63 1018.88 1018.97 1019.12 1019.21 1019.35 1019.49 1019.48 1019.45 1019.53 1019.48 1019.38 1019.45 1019.59 1019.36 1018.78 1018.29 1017.71 1017.39 1017.03 1016.65 1016.06 1015.84
1008.73 1009.51 1010.24 1010.90 1011.49 1012.20 1012.85 1013.48 1014.02 1014.33 1014.67 1014.98 1015.43 1015.78 1016.17 1016.57 1016.92 1017.29 1017.65 1017.92 1018.10 1018.31 1018.50 1018.58 1018.63 1018.75 1018.89 1019.01 1019.17 1019.20 1019.15 1019.24 1019.18 1019.21 1019.11 1018.84 1018.34 1017.62 1017.52 1017.52 1017.10 1016.58 1016.07
1007.88 1008.52 1009.05 1009.81 1010.68 1011.45 1012.09 1012.69 1013.29 1013.77 1013.98 1014.45 1014.93 1015.31 1015.62 1016.04 1016.37 1016.78 1017.10 1017.42 1017.65 1017.81 1017.88 1017.94 1017.99 1018.02 1018.19 1018.29 1018.53 1018.59 1018.70 1018.83 1018.83 1018.90 1018.91 1018.71 1018.32 1017.97 1017.83 1017.54 1017.31 1016.91 1016.28
1006.69 1007.57 1008.49 1009.14 1009.85 1010.49 1011.20 1011.83 1012.50 1012.93 1013.39 1013.73 1014.25 1014.69 1015.16 1015.40 1015.70 1016.08 1016.49 1016.84 1017.04 1017.23 1017.38 1017.41 1017.43 1017.53 1017.52 1017.63 1017.77 1017.86 1017.99 1018.21 1018.30 1018.41 1018.37 1018.35 1017.89 1017.71 1017.58 1017.42 1017.19 1017.01 1016.67
1005.68 1006.60 1007.46 1008.20 1008.85 1009.51 1010.22 1010.99 1011.51 1011.95 1012.43 1012.93 1013.43 1013.93 1014.39 1014.71 1015.05 1015.41 1015.75 1016.11 1016.42 1016.56 1016.68 1016.84 1016.94 1016.95 1016.99 1017.09 1017.14 1017.17 1017.11 1017.07 1017.14 1017.20 1017.52 1017.35 1017.26 1016.95 1016.99 1016.93 1016.80 1016.68 1016.40
1005.92 1005.88 1006.57 1007.19 1007.84 1008.66 1009.39 1009.94 1010.62 1011.21 1011.71 1012.16 1012.57 1013.06 1013.55 1013.89 1014.31 1014.78 1015.13 1015.56 1015.69 1015.72 1015.86 1016.05 1016.26 1016.35 1016.35 1016.55 1016.72 1016.75 1016.55 1016.32 1016.10 1016.25 1016.49 1016.29 1016.21 1016.11 1016.23 1015.97 1016.08 1016.11 1015.77
1005.61 1005.08 1005.75 1006.29 1007.01 1007.73 1008.43 1008.95 1009.62 1010.33 1010.84 1011.21 1011.75 1012.25 1012.67 1013.07 1013.52 1014.01 1014.60 1015.07 1015.17 1015.09 1015.11 1015.22 1015.45 1015.60 1015.64 1015.99 1016.35 1016.44 1016.17 1015.65 1015.19 1015.31 1015.29 1015.29 1015.26 1015.23 1015.25 1015.62 1015.78 1016.00 1015.69
1006.25 1004.92 1004.71 1005.30 1005.87 1006.45 1007.10 1007.91 1008.61 1009.25 1009.68 1010.29 1010.77 1011.18 1011.68 1012.12 1012.69 1013.15 1013.75 1014.20 1014.53 1014.51 1014.53 1014.52 1014.57 1014.64 1014.89 1015.24 1015.60 1015.77 1015.63 1014.81 1014.88 1014.63 1014.89 1014.94 1014.91 1014.76 1014.67 1015.14 1015.09 1015.35 1015.38
1006.27 1005.83 1004.61 1004.40 1004.71 1005.23 1006.07 1006.94 1007.69 1008.38 1008.98 1009.49 1009.91 1010.30 1010.85 1011.30 1011.73 1012.22 1012.67 1013.17 1013.25 1013.48 1013.55 1013.57 1013.67 1013.79 1014.04 1014.36 1014.53 1014.59 1014.30 1014.00 1014.18 1014.37 1014.41 1014.39 1014.19 1014.07 1013.97 1013.99 1013.99 1014.23 1014.37
1006.43 1005.61 1004.45 1003.80 1004.17 1004.67 1005.33 1006.04 1006.76 1007.54 1008.18 1008.64 1009.10 1009.51 1009.83 1010.22 1010.65 1011.12 1011.54 1011.98 1012.11 1012.38 1012.31 1012.29 1012.49 1012.82 1013.15 1013.34 1013.37 1013.47 1013.45 1013.57 1013.99 1014.03 1014.08 1014.00 1013.88 1013.65 1013.25 1013.03 1012.74 1013.02 1013.14
1006.31 1005.49 1004.07 1003.17 1003.48 1003.91 1004.71 1005.32 1006.05 1006.65 1007.24 1007.71 1008.16 1008.55 1008.82 1009.08 1009.42 1009.90 1010.34 1010.81 1011.14 1011.57 1011.46 1011.51 1011.77 1012.06 1012.38 1012.58 1012.64 1012.71 1012.97 1013.49 1013.51 1013.62 1013.43 1013.17 1012.99 1012.83 1012.65 1012.73 1012.65 1012.97 1013.32
1006.40 1005.17 1003.50 1002.59 1003.03 1003.54 1004.08 1004.61 1005.11 1005.70 1006.19 1006.61 1007.04 1007.35 1007.73 1008.09 1008.34 1008.71 1009.55 1010.14 1010.35 1010.89 1010.79 1010.99 1011.27 1011.59 1011.78 1011.81 1012.03 1012.14 1012.41 1012.54 1012.48 1012.43 1012.36 1012.30 1012.36 1012.30 1012.30 1012.38 1012.99 1013.39 1013.75
1006.91 1006.04 1004.45 1002.67 1002.74 1003.12 1003.34 1003.71 1004.06 1004.43 1004.95 1005.50 1005.90 1006.44 1006.81 1007.08 1007.23 1007.57 1008.01 1008.73 1009.17 1009.49 1009.89 1010.57 1010.89 1011.18 1011.27 1011.23 1011.22 1011.27 1011.46 1011.73 1011.79 1011.59 1011.72 1011.83 1011.89 1011.77 1011.72 1011.94 1012.31 1013.05 1013.35
1007.37 1007.14 1005.97 1004.17 1003.72 1003.24 1003.42 1003.91 1004.00 1003.89 1004.10 1004.53 1005.07 1005.57 1005.96 1006.27 1006.47 1006.79 1007.06 1007.34 1007.64 1008.16 1009.64 1009.82 1009.98 1010.21 1010.34 1010.34 1010.37 1010.33 1010.36 1010.47 1010.59 1010.78 1010.97 1011.12 1011.09 1011.23 1011.39 1011.78 1012.07 1012.28 1012.79
1007.33 1007.03 1006.41 1005.16 1004.20 1004.88 1003.80 1003.91 1004.19 1004.48 1004.46 1004.79 1004.81 1004.86 1005.34 1005.63 1005.99 1006.19 1006.27 1006.72 1007.23 1008.08 1008.40 1008.61 1008.75 1008.98 1009.14 1009.21 1009.25 1009.29 1009.32 1009.25 1009.31 1009.67 1010.09 1010.41 1010.58 1010.72 1010.92 1011.11 1011.44 1011.79 1012.01
1007.65 1007.18 1007.16 1006.95 1006.04 1004.76 1004.41 1003.95 1003.72 1003.98 1004.40 1004.94 1005.03 1005.11 1005.33 1005.10 1005.88 1006.12 1006.14 1006.87 1007.94 1007.63 1007.41 1007.60 1007.79 1008.03 1008.15 1008.17 1008.15 1008.24 1008.37 1008.45 1008.72 1008.90 1009.23 1009.59 1009.92 1010.11 1010.43 1010.68 1011.01 1011.16 1011.18
1008.16 1007.70 1007.29 1006.63 1005.79 1005.60 1004.68 1003.88 1003.52 1003.37 1003.49 1003.70 1004.81 1005.51 1005.93 1006.19 1006.18 1006.25 1006.25 1006.26 1006.61 1006.75 1006.78 1006.94 1007.07 1007.19 1007.26 1007.19 1007.27 1007.35 1007.39 1007.73 1008.01 1008.30 1008.45 1008.64 1008.87 1009.26 1009.60 1009.85 1010.12 1010.39 1010.71
1008.66 1008.26 1007.72 1007.41 1007.41 1006.03 1005.59 1004.45 1003.64 1003.41 1003.27 1003.33 1003.75 1004.18 1005.43 1006.13 1006.15 1006.14 1006.24 1006.28 1006.31 1006.32 1006.36 1006.48 1006.59 1006.62 1006.65 1006.74 1006.75 1006.67 1006.93 1007.24 1007.41 1007.63 1007.84 1007.99 1007.91 1008.35 1009.05 1009.31 1009.50 1009.79 1009.99
1008.77 1008.53 1008.03 1007.61 1007.55 1007.32 1006.27 1005.44 1004.61 1004.18 1003.75 1003.33 1004.13 1004.32 1004.41 1005.28 1005.63 1005.63 1006.12 1006.36 1006.27 1006.41 1006.47 1006.35 1006.23 1006.42 1006.83 1006.50 1006.25 1006.37 1006.49 1006.75 1006.60 1006.78 1007.02 1007.17 1007.32 1007.87 1008.39 1008.70 1008.99 1009.18 1009.30
1009.52 1009.31 1008.61 1008.57 1008.08 1007.59 1006.78 1006.14 1005.70 1005.32 1005.30 1004.79 1004.83 1005.31 1005.56 1004.57 1006.41 1006.70 1006.98 1007.48 1007.65 1007.65 1007.95 1007.57 1008.00 1008.83 1009.58 1009.61 1008.17 1007.49 1007.11 1007.02 1006.55 1006.37 1006.61 1007.01 1007.22 1007.49 1007.91 1008.17 1008.46 1008.69 1008.85
1010.38 1010.16 1009.72 1009.43 1009.17 1008.52 1007.90 1008.48 1007.76 1006.83 1007.80 1007.43 1007.61 1006.99 1007.18 1007.31 1007.53 1008.06 1008.37 1008.83 1009.11 1009.37 1009.86 1009.63 1008.47 1008.79 1010.78 1010.79 1010.55 1009.97 1009.16 1009.29 1008.94 1008.49 1007.52 1006.91 1007.00 1007.25 1007.42 1007.48 1007.74 1008.08 1008.24
1011.42 1011.39 1011.04 1010.41 1010.36 1010.03 1009.95 1009.73 1009.59 1008.63 1009.00 1009.04 1009.34 1010.25 1008.87 1009.73 1009.61 1009.75 1010.12 1010.47 1010.36 1010.64 1010.95 1011.36 1011.13 1011.55 1009.68 1011.99 1011.62 1010.27 1010.21 1009.97 1009.50 1008.95 1008.29 1007.60 1006.87 1006.82 1006.85 1007.00 1007.27 1007.38 1007.35
1012.49 1012.47 1012.10 1011.69 1011.55 1011.47 1011.31 1011.18 1010.77 1010.85 1010.45 1009.78 1009.70 1011.29 1011.43 1010.95 1011.82 1010.89 1012.21 1010.92 1011.42 1011.54 1011.70 1011.45 1012.49 1011.85 1010.57 1013.06 1012.25 1011.07 1010.46 1010.54 1009.91 1009.28 1008.21 1007.83 1007.48 1007.11 1006.77 1006.54 1006.60 1006.77 1006.74
1013.64 1013.44 1013.17 1012.78 1012.78 1012.69 1012.52 1012.57 1012.82 1012.65 1011.97 1012.17 1012.69 1012.86 1012.22 1011.97 1012.41 1012.11 1012.77 1010.80 1012.60 1013.96 1010.86 1013.88 1014.59 1012.41 1013.44 1013.60 1013.01 1012.05 1011.63 1010.93 1010.03 1009.13 1008.05 1007.81 1007.93 1007.48 1007.45 1006.71 1006.64 1006.32 1006.01
Wind_Speed
19 17 16 14 9 7 7 8 7 5 6 9 9 7 7 7 7 6 7 6 6 6 5 5 6 6 4 3 1 1 2 2 3 4 3 3 4 6 8 5 6 7 7
20 18 18 15 13 13 9 7 7 7 7 8 11 11 9 8 7 7 7 7 6 7 7 6 7 5 7 5 3 4 3 3 2 4 3 3 4 7 8 7 7 7 5
20 19 17 17 17 14 14 7 9 7 7 8 9 10 9 8 8 7 7 7 7 6 8 7 7 6 5 4 5 5 3 3 2 2 4 3 4 4 4 3 3 4 3
20 20 19 19 18 17 15 13 7 10 8 7 8 9 8 8 8 8 7 7 7 7 7 7 7 7 7 7 6 6 5 4 4 3 4 4 3 4 1 2 4 3 5
21 20 20 18 17 15 16 14 16 8 13 11 7 7 8 8 8 8 8 8 8 8 7 7 8 9 11 11 7 6 6 5 4 4 4 2 3 3 3 2 3 3 4
22 21 19 17 17 17 15 15 15 17 8 13 13 12 10 9 13 15 11 8 9 11 10 8 7 8 11 13 11 9 7 5 5 4 3 5 8 4 2 3 3 3 3
19 20 20 19 18 18 16 15 15 17 17 14 13 13 13 13 14 16 17 11 10 9 10 10 9 9 9 7 10 13 13 14 14 10 7 7 5 6 3 4 4 4 4
15 17 19 18 19 17 17 17 16 14 15 14 14 15 14 12 14 16 16 12 10 13 12 11 12 11 9 8 7 8 9 9 8 7 10 12 10 8 7 9 6 4 4
14 17 17 19 18 17 19 18 15 15 14 15 13 13 15 15 16 17 11 8 11 12 12 12 12 12 12 11 8 9 9 9 8 13 13 14 16 16 11 2 4 2 5
15 9 16 18 18 19 19 19 16 15 15 12 14 15 14 15 14 17 15 10 9 8 9 10 14 14 12 12 10 9 11 13 6 6 5 7 11 10 17 10 8 7 4
15 15 10 16 19 19 18 15 16 15 14 14 14 13 14 14 14 17 18 13 12 10 10 10 10 16 17 14 16 13 15 13 9 6 5 5 5 5 5 6 9 6 4
13 15 12 13 13 12 17 15 15 14 14 14 14 12 11 13 16 16 19 21 16 13 12 11 11 14 17 20 16 18 17 8 4 4 4 4 5 6 8 6 7 6 4
14 15 15 11 14 14 15 15 12 14 12 13 11 12 11 11 12 18 20 21 21 13 12 12 10 10 8 7 13 16 7 5 8 8 8 8 6 7 7 2 5 6 5
15 17 13 11 11 11 11 11 12 12 12 12 13 12 11 11 10 11 10 10 17 13 11 8 7 8 9 7 3 5 5 6 7 8 8 6 4 4 4 4 3 3 3
13 15 14 3 9 9 11 11 12 13 14 13 12 11 11 11 13 13 13 11 11 13 11 8 7 6 8 8 7 5 5 6 7 6 5 5 5 4 3 4 4 3 4
10 10 11 7 7 4 6 5 5 8 15 16 15 12 11 10 13 19 19 18 19 13 5 8 9 9 9 9 8 8 7 9 7 6 7 7 6 5 4 3 3 4 5
9 10 10 9 7 6 3 6 10 2 5 2 12 18 14 12 12 12 13 17 12 14 6 9 9 8 9 9 8 8 7 7 8 7 7 6 5 4 5 4 5 5 6
10 10 7 8 7 6 5 5 8 9 7 4 3 2 1 13 10 8 12 12 5 4 7 8 8 8 8 8 8 6 5 5 5 5 5 5 5 5 4 4 4 5 6
8 7 8 9 9 9 7 3 4 7 9 8 3 1 3 6 7 5 3 2 6 7 6 6 5 7 7 6 5 5 6 5 5 5 5 7 7 5 4 5 6 9 8
7 10 8 6 8 9 8 5 4 5 5 4 7 8 8 5 4 4 4 3 3 4 5 5 6 5 4 4 5 6 5 5 5 5 6 8 7 5 5 6 5 6 8
6 8 9 4 4 7 8 6 6 5 4 5 2 5 4 5 5 4 3 5 3 2 3 3 3 2 3 5 7 7 7 6 6 6 5 5 5 5 4 4 4 6 5
8 8 7 6 4 5 6 9 10 10 10 8 7 9 10 11 8 9 11 10 8 9 5 10 9 10 11 10 9 9 6 3 3 2 4 4 4 4 4 4 5 6 7
8 8 8 8 7 9 9 7 9 11 10 12 10 9 11 10 11 11 11 10 10 10 10 6 9 11 7 9 9 8 8 8 7 7 7 5 5 4 5 5 6 6 5
9 9 8 8 8 8 7 8 6 13 10 9 12 10 11 10 10 11 9 9 8 9 8 9 9 8 12 8 7 7 8 8 7 7 8 7 3 5 5 5 6 9 6
9 8 8 8 8 8 8 9 9 10 7 7 12 6 5 11 7 11 9 9 10 10 11 12 11 12 19 14 15 16 15 15 9 10 4 4 6 7 6 7 7 8 7
10 9 8 8 9 9 9 9 9 8 9 9 7 7 7 7 7 9 7 12 9 6 14 10 9 18 14 12 15 17 13 13 13 12 5 5 7 6 7 6 7 3 5
Wind_Direction
189 188 194 198 198 184 188 204 199 186 147 164 165 171 179 184 187 183 200 207 203 213 235 222 246 259 278 279 288 329 321 171 222 297 253 292 313 303 301 281 263 260 263
186 188 191 194 198 203 198 196 193 205 166 175 177 184 189 191 190 189 195 209 204 209 224 228 239 236 250 260 248 251 243 259 195 271 273 288 283 286 271 288 283 270 261
183 188 189 192 195 201 205 202 199 187 199 175 175 178 180 186 193 198 198 208 211 215 214 217 230 224 233 238 247 260 262 264 235 227 277 253 267 270 301 284 299 308 315
185 185 190 194 196 198 201 205 203 200 190 190 179 186 182 187 192 196 195 206 217 219 221 222 220 219 225 233 230 232 243 256 257 254 266 272 261 296 293 258 333 338 321
184 189 193 192 195 192 197 195 204 201 206 204 191 192 191 190 200 197 202 199 208 226 229 226 228 224 218 223 227 230 223 234 249 255 266 276 281 303 315 286 284 294 302
186 190 191 188 192 195 195 196 197 209 197 201 202 204 203 210 208 199 198 202 207 214 229 238 236 238 244 242 239 232 206 204 231 218 245 257 274 256 248 273 290 326 325
184 188 189 189 189 195 192 195 200 204 210 208 205 204 210 215 209 207 204 211 210 215 218 228 240 243 231 234 243 247 249 237 232 245 241 243 248 245 236 270 251 232 240
214 186 188 187 192 191 195 197 200 200 206 209 211 209 212 215 205 211 211 217 214 220 219 213 221 234 230 221 238 250 251 248 239 226 230 251 251 255 224 252 244 246 263
220 185 187 188 188 189 196 200 199 202 203 209 210 209 212 220 207 211 193 206 222 223 222 224 221 230 232 217 225 245 260 257 244 237 227 226 234 241 238 196 240 229 281
346 219 183 184 189 191 193 196 197 202 210 205 210 214 212 220 207 209 199 218 220 225 223 228 219 221 206 207 220 229 247 254 233 249 250 248 243 246 247 217 242 240 217
327 321 204 188 189 192 190 190 195 200 204 211 216 216 217 215 218 206 200 214 223 222 229 228 228 221 228 225 219 235 238 252 245 233 248 250 258 258 249 200 209 202 194
330 312 263 188 191 187 188 188 192 196 203 209 213 217 219 218 215 209 203 206 216 221 226 229 233 212 220 228 231 236 245 246 228 231 232 242 248 260 265 229 213 198 200
328 314 281 187 187 185 186 189 189 193 199 208 209 214 219 217 219 212 203 207 220 218 230 230 220 192 195 221 234 243 232 219 232 233 239 240 231 241 254 135 73 95 89
334 322 265 193 179 185 184 189 191 196 203 206 209 212 215 220 219 211 211 211 226 220 242 230 189 193 204 209 235 198 203 209 204 216 224 230 231 242 224 157 149 151 128
350 339 330 207 183 187 190 187 197 204 203 207 213 212 215 218 218 210 201 203 210 215 209 224 229 228 244 251 249 222 195 204 211 215 206 213 225 234 224 169 148 149 182
1 340 338 339 2 229 199 203 52 230 203 206 200 209 218 240 218 208 217 203 198 178 176 205 216 222 227 232 232 232 208 203 208 205 216 226 214 218 208 163 160 171 190
357 351 337 347 4 339 298 211 223 28 59 20 216 209 202 192 196 202 207 206 172 147 191 204 211 204 215 221 218 215 215 212 189 196 201 210 215 216 200 177 189 185 207
342 349 348 329 310 340 318 303 236 212 202 202 175 118 195 153 169 163 138 119 135 250 199 192 200 205 213 216 214 204 191 191 199 202 197 203 203 194 189 205 197 216 208
340 340 335 332 333 316 307 294 280 218 203 193 134 85 121 113 115 111 9 126 174 196 200 202 193 204 216 215 197 197 193 194 192 203 204 198 201 183 198 199 205 212 207
327 314 310 332 313 333 323 329 12 293 198 213 190 183 154 183 175 178 210 216 221 215 191 201 223 229 231 225 207 207 205 203 209 211 206 204 193 166 196 209 212 230 225
318 298 277 296 337 322 336 7 8 3 290 101 219 103 237 180 202 184 194 218 206 271 328 322 300 305 286 244 223 206 211 217 217 212 190 180 162 179 193 201 224 226 209
16 351 2 16 336 334 8 23 27 28 31 36 52 59 60 83 53 54 55 45 39 46 57 56 47 36 14 3 3 11 1 2 343 238 178 176 171 172 187 194 217 234 227
16 1 10 22 12 13 34 17 33 46 20 30 20 45 44 51 58 49 46 41 43 34 28 21 91 58 17 14 10 18 25 4 344 326 307 185 174 186 197 203 210 226 223
30 18 18 28 26 36 28 31 33 58 44 39 39 15 44 38 52 57 52 40 43 47 49 24 38 49 63 13 358 17 19 358 331 323 328 331 252 197 211 206 215 225 222
39 33 28 32 35 40 43 37 28 54 64 39 66 61 68 42 34 50 25 65 45 40 47 41 18 31 47 17 14 15 5 338 334 311 334 326 321 336 268 227 224 231 223
43 42 42 45 39 39 50 51 39 32 44 49 59 63 64 66 58 62 42 56 59 48 61 45 25 49 37 18 8 5 356 349 356 347 350 9 356 351 341 326 295 256 230